Year,Month,Day,Hour,Minute,Value (Times are PST for temperature in C)
2008,03,28,00,00,3.80
2008,03,28,00,01,3.80
2008,03,28,00,02,3.80
2008,03,28,00,03,3.80
2008,03,28,00,04,3.90
2008,03,28,00,05,3.90
2008,03,28,00,06,3.90
2008,03,28,00,07,3.90
2008,03,28,00,08,3.90
2008,03,28,00,09,3.90
2008,03,28,00,10,3.90
2008,03,28,00,11,3.90
2008,03,28,00,12,3.90
2008,03,28,00,13,3.90
2008,03,28,00,14,3.90
2008,03,28,00,15,3.90
2008,03,28,00,16,3.90
2008,03,28,00,17,3.90
2008,03,28,00,18,3.90
2008,03,28,00,19,3.90
2008,03,28,00,20,3.90
2008,03,28,00,21,3.90
2008,03,28,00,22,3.90
2008,03,28,00,23,3.90
2008,03,28,00,24,3.90
2008,03,28,00,25,3.90
2008,03,28,00,26,3.90
2008,03,28,00,27,4.00
2008,03,28,00,28,4.00
2008,03,28,00,29,4.00
2008,03,28,00,30,4.00
2008,03,28,00,31,4.00
2008,03,28,00,32,4.10
2008,03,28,00,33,4.10
2008,03,28,00,34,4.10
2008,03,28,00,35,4.10
2008,03,28,00,36,4.20
2008,03,28,00,37,4.20
2008,03,28,00,38,4.20
2008,03,28,00,39,4.20
2008,03,28,00,40,4.20
2008,03,28,00,41,4.20
2008,03,28,00,42,4.30
2008,03,28,00,43,4.30
2008,03,28,00,44,4.30
2008,03,28,00,45,4.30
2008,03,28,00,46,4.30
2008,03,28,00,47,4.30
2008,03,28,00,48,4.40
2008,03,28,00,49,4.40
2008,03,28,00,50,4.40
2008,03,28,00,51,4.40
2008,03,28,00,52,4.40
2008,03,28,00,53,4.40
2008,03,28,00,54,4.40
2008,03,28,00,55,4.40
2008,03,28,00,56,4.40
2008,03,28,00,57,4.40
2008,03,28,00,58,4.40
2008,03,28,00,59,4.40
2008,03,28,01,00,4.40
2008,03,28,01,01,4.40
2008,03,28,01,02,4.40
2008,03,28,01,03,4.40
2008,03,28,01,04,4.40
2008,03,28,01,05,4.40
2008,03,28,01,06,4.40
2008,03,28,01,07,4.30
2008,03,28,01,08,4.30
2008,03,28,01,09,4.30
2008,03,28,01,10,4.30
2008,03,28,01,11,4.30
2008,03,28,01,12,4.20
2008,03,28,01,13,4.20
2008,03,28,01,14,4.20
2008,03,28,01,15,4.20
2008,03,28,01,16,4.20
2008,03,28,01,17,4.20
2008,03,28,01,18,4.20
2008,03,28,01,19,4.10
2008,03,28,01,20,4.10
2008,03,28,01,21,4.10
2008,03,28,01,22,4.10
2008,03,28,01,23,4.00
2008,03,28,01,24,4.00
2008,03,28,01,25,4.00
2008,03,28,01,26,4.00
2008,03,28,01,27,4.00
2008,03,28,01,28,3.90
2008,03,28,01,29,3.90
2008,03,28,01,30,3.90
2008,03,28,01,31,3.90
2008,03,28,01,32,3.90
2008,03,28,01,33,3.90
2008,03,28,01,34,3.90
2008,03,28,01,35,3.90
2008,03,28,01,36,3.80
2008,03,28,01,37,3.80
2008,03,28,01,38,3.80
2008,03,28,01,39,3.80
2008,03,28,01,40,3.80
2008,03,28,01,41,3.80
2008,03,28,01,42,3.90
2008,03,28,01,43,3.90
2008,03,28,01,44,3.90
2008,03,28,01,45,3.90
2008,03,28,01,46,3.90
2008,03,28,01,47,3.90
2008,03,28,01,48,3.90
2008,03,28,01,49,3.90
2008,03,28,01,50,3.90
2008,03,28,01,51,3.90
2008,03,28,01,52,3.90
2008,03,28,01,53,3.90
2008,03,28,01,54,3.90
2008,03,28,01,55,3.80
2008,03,28,01,56,3.80
2008,03,28,01,57,3.80
2008,03,28,01,58,3.80
2008,03,28,01,59,3.80
2008,03,28,02,00,3.80
2008,03,28,02,01,3.80
2008,03,28,02,02,3.80
2008,03,28,02,03,3.80
2008,03,28,02,04,3.80
2008,03,28,02,05,3.80
2008,03,28,02,06,3.80
2008,03,28,02,07,3.80
2008,03,28,02,08,3.80
2008,03,28,02,09,3.80
2008,03,28,02,10,3.80
2008,03,28,02,11,3.80
2008,03,28,02,12,3.80
2008,03,28,02,13,3.70
2008,03,28,02,14,3.80
2008,03,28,02,15,3.70
2008,03,28,02,16,3.70
2008,03,28,02,17,3.70
2008,03,28,02,18,3.70
2008,03,28,02,19,3.70
2008,03,28,02,20,3.70
2008,03,28,02,21,3.70
2008,03,28,02,22,3.70
2008,03,28,02,23,3.70
2008,03,28,02,24,3.70
2008,03,28,02,25,3.70
2008,03,28,02,26,3.70
2008,03,28,02,27,3.70
2008,03,28,02,28,3.60
2008,03,28,02,29,3.60
2008,03,28,02,30,3.60
2008,03,28,02,31,3.60
2008,03,28,02,32,3.60
2008,03,28,02,33,3.60
2008,03,28,02,34,3.60
2008,03,28,02,35,3.60
2008,03,28,02,36,3.60
2008,03,28,02,37,3.60
2008,03,28,02,38,3.60
2008,03,28,02,39,3.60
2008,03,28,02,40,3.60
2008,03,28,02,41,3.60
2008,03,28,02,42,3.60
2008,03,28,02,43,3.60
2008,03,28,02,44,3.60
2008,03,28,02,45,3.60
2008,03,28,02,46,3.60
2008,03,28,02,47,3.60
2008,03,28,02,48,3.60
2008,03,28,02,49,3.60
2008,03,28,02,50,3.60
2008,03,28,02,51,3.60
2008,03,28,02,52,3.70
2008,03,28,02,53,3.70
2008,03,28,02,54,3.60
2008,03,28,02,55,3.60
2008,03,28,02,56,3.70
2008,03,28,02,57,3.70
2008,03,28,02,58,3.70
2008,03,28,02,59,3.70
2008,03,28,03,00,3.70
2008,03,28,03,01,3.70
2008,03,28,03,02,3.70
2008,03,28,03,03,3.70
2008,03,28,03,04,3.70
2008,03,28,03,05,3.70
2008,03,28,03,06,3.70
2008,03,28,03,07,3.70
2008,03,28,03,08,3.70
2008,03,28,03,09,3.70
2008,03,28,03,10,3.70
2008,03,28,03,11,3.60
2008,03,28,03,12,3.60
2008,03,28,03,13,3.60
2008,03,28,03,14,3.60
2008,03,28,03,15,3.60
2008,03,28,03,16,3.60
2008,03,28,03,17,3.60
2008,03,28,03,18,3.60
2008,03,28,03,19,3.60
2008,03,28,03,20,3.60
2008,03,28,03,21,3.60
2008,03,28,03,22,3.60
2008,03,28,03,23,3.60
2008,03,28,03,24,3.60
2008,03,28,03,25,3.60
2008,03,28,03,26,3.60
2008,03,28,03,27,3.60
2008,03,28,03,28,3.60
2008,03,28,03,29,3.60
2008,03,28,03,30,3.60
2008,03,28,03,31,3.60
2008,03,28,03,32,3.60
2008,03,28,03,33,3.60
2008,03,28,03,34,3.60
2008,03,28,03,35,3.60
2008,03,28,03,36,3.60
2008,03,28,03,37,3.60
2008,03,28,03,38,3.60
2008,03,28,03,39,3.60
2008,03,28,03,40,3.60
2008,03,28,03,41,3.60
2008,03,28,03,42,3.60
2008,03,28,03,43,3.50
2008,03,28,03,44,3.50
2008,03,28,03,45,3.50
2008,03,28,03,46,3.50
2008,03,28,03,47,3.50
2008,03,28,03,48,3.50
2008,03,28,03,49,3.50
2008,03,28,03,50,3.50
2008,03,28,03,51,3.50
2008,03,28,03,52,3.50
2008,03,28,03,53,3.50
2008,03,28,03,54,3.50
2008,03,28,03,55,3.50
2008,03,28,03,56,3.50
2008,03,28,03,57,3.50
2008,03,28,03,58,3.50
2008,03,28,03,59,3.50
2008,03,28,04,00,3.50
2008,03,28,04,01,3.50
2008,03,28,04,02,3.50
2008,03,28,04,03,3.50
2008,03,28,04,04,3.50
2008,03,28,04,05,3.50
2008,03,28,04,06,3.50
2008,03,28,04,07,3.50
2008,03,28,04,08,3.50
2008,03,28,04,09,3.50
2008,03,28,04,10,3.50
2008,03,28,04,11,3.50
2008,03,28,04,12,3.50
2008,03,28,04,13,3.50
2008,03,28,04,14,3.50
2008,03,28,04,15,3.50
2008,03,28,04,16,3.50
2008,03,28,04,17,3.50
2008,03,28,04,18,3.50
2008,03,28,04,19,3.50
2008,03,28,04,20,3.50
2008,03,28,04,21,3.50
2008,03,28,04,22,3.50
2008,03,28,04,23,3.60
2008,03,28,04,24,3.60
2008,03,28,04,25,3.60
2008,03,28,04,26,3.60
2008,03,28,04,27,3.60
2008,03,28,04,28,3.60
2008,03,28,04,29,3.60
2008,03,28,04,30,3.60
2008,03,28,04,31,3.60
2008,03,28,04,32,3.60
2008,03,28,04,33,3.60
2008,03,28,04,34,3.60
2008,03,28,04,35,3.60
2008,03,28,04,36,3.60
2008,03,28,04,37,3.60
2008,03,28,04,38,3.60
2008,03,28,04,39,3.60
2008,03,28,04,40,3.60
2008,03,28,04,41,3.60
2008,03,28,04,42,3.60
2008,03,28,04,43,3.60
2008,03,28,04,44,3.60
2008,03,28,04,45,3.60
2008,03,28,04,46,3.60
2008,03,28,04,47,3.60
2008,03,28,04,48,3.60
2008,03,28,04,49,3.60
2008,03,28,04,50,3.60
2008,03,28,04,51,3.60
2008,03,28,04,52,3.60
2008,03,28,04,53,3.60
2008,03,28,04,54,3.60
2008,03,28,04,55,3.60
2008,03,28,04,56,3.60
2008,03,28,04,57,3.60
2008,03,28,04,58,3.60
2008,03,28,04,59,3.50
2008,03,28,05,00,3.50
2008,03,28,05,01,3.50
2008,03,28,05,02,3.50
2008,03,28,05,03,3.50
2008,03,28,05,04,3.50
2008,03,28,05,05,3.50
2008,03,28,05,06,3.50
2008,03,28,05,07,3.50
2008,03,28,05,08,3.40
2008,03,28,05,09,3.50
2008,03,28,05,10,3.40
2008,03,28,05,11,3.40
2008,03,28,05,12,3.40
2008,03,28,05,13,3.40
2008,03,28,05,14,3.50
2008,03,28,05,15,3.50
2008,03,28,05,16,3.50
2008,03,28,05,17,3.50
2008,03,28,05,18,3.50
2008,03,28,05,19,3.50
2008,03,28,05,20,3.50
2008,03,28,05,21,3.50
2008,03,28,05,22,3.50
2008,03,28,05,23,3.50
2008,03,28,05,24,3.50
2008,03,28,05,25,3.50
2008,03,28,05,26,3.50
2008,03,28,05,27,3.50
2008,03,28,05,28,3.50
2008,03,28,05,29,3.50
2008,03,28,05,30,3.50
2008,03,28,05,31,3.50
2008,03,28,05,32,3.50
2008,03,28,05,33,3.50
2008,03,28,05,34,3.40
2008,03,28,05,35,3.40
2008,03,28,05,36,3.40
2008,03,28,05,37,3.40
2008,03,28,05,38,3.40
2008,03,28,05,39,3.40
2008,03,28,05,40,3.40
2008,03,28,05,41,3.40
2008,03,28,05,42,3.40
2008,03,28,05,43,3.30
2008,03,28,05,44,3.30
2008,03,28,05,45,3.30
2008,03,28,05,46,3.30
2008,03,28,05,47,3.30
2008,03,28,05,48,3.30
2008,03,28,05,49,3.30
2008,03,28,05,50,3.30
2008,03,28,05,51,3.30
2008,03,28,05,52,3.30
2008,03,28,05,53,3.30
2008,03,28,05,54,3.30
2008,03,28,05,55,3.30
2008,03,28,05,56,3.30
2008,03,28,05,57,3.30
2008,03,28,05,58,3.30
2008,03,28,05,59,3.30
2008,03,28,06,00,3.30
2008,03,28,06,01,3.30
2008,03,28,06,02,3.30
2008,03,28,06,03,3.30
2008,03,28,06,04,3.30
2008,03,28,06,05,3.30
2008,03,28,06,06,3.30
2008,03,28,06,07,3.30
2008,03,28,06,08,3.30
2008,03,28,06,09,3.30
2008,03,28,06,10,3.30
2008,03,28,06,11,3.30
2008,03,28,06,12,3.30
2008,03,28,06,13,3.30
2008,03,28,06,14,3.30
2008,03,28,06,15,3.30
2008,03,28,06,16,3.30
2008,03,28,06,17,3.20
2008,03,28,06,18,3.20
2008,03,28,06,19,3.20
2008,03,28,06,20,3.10
2008,03,28,06,21,3.10
2008,03,28,06,22,3.00
2008,03,28,06,23,3.00
2008,03,28,06,24,2.90
2008,03,28,06,25,2.90
2008,03,28,06,26,2.80
2008,03,28,06,27,2.80
2008,03,28,06,28,2.80
2008,03,28,06,29,2.70
2008,03,28,06,30,2.70
2008,03,28,06,31,2.60
2008,03,28,06,32,2.60
2008,03,28,06,33,2.60
2008,03,28,06,34,2.60
2008,03,28,06,35,2.50
2008,03,28,06,36,2.50
2008,03,28,06,37,2.40
2008,03,28,06,38,2.40
2008,03,28,06,39,2.40
2008,03,28,06,40,2.40
2008,03,28,06,41,2.40
2008,03,28,06,42,2.40
2008,03,28,06,43,2.40
2008,03,28,06,44,2.30
2008,03,28,06,45,2.30
2008,03,28,06,46,2.30
2008,03,28,06,47,2.30
2008,03,28,06,48,2.30
2008,03,28,06,49,2.30
2008,03,28,06,50,2.30
2008,03,28,06,51,2.30
2008,03,28,06,52,2.30
2008,03,28,06,53,2.30
2008,03,28,06,54,2.30
2008,03,28,06,55,2.30
2008,03,28,06,56,2.30
2008,03,28,06,57,2.20
2008,03,28,06,58,2.20
2008,03,28,06,59,2.20
2008,03,28,07,00,2.20
2008,03,28,07,01,2.20
2008,03,28,07,02,2.20
2008,03,28,07,03,2.20
2008,03,28,07,04,2.20
2008,03,28,07,05,2.20
2008,03,28,07,06,2.20
2008,03,28,07,07,2.20
2008,03,28,07,08,2.20
2008,03,28,07,09,2.20
2008,03,28,07,10,2.20
2008,03,28,07,11,2.20
2008,03,28,07,12,2.20
2008,03,28,07,13,2.20
2008,03,28,07,14,2.20
2008,03,28,07,15,2.20
2008,03,28,07,16,2.20
2008,03,28,07,17,2.20
2008,03,28,07,18,2.20
2008,03,28,07,19,2.20
2008,03,28,07,20,2.20
2008,03,28,07,21,2.20
2008,03,28,07,22,2.20
2008,03,28,07,23,2.20
2008,03,28,07,24,2.20
2008,03,28,07,25,2.20
2008,03,28,07,26,2.20
2008,03,28,07,27,2.20
2008,03,28,07,28,2.20
2008,03,28,07,29,2.20
2008,03,28,07,30,2.20
2008,03,28,07,31,2.20
2008,03,28,07,32,2.20
2008,03,28,07,33,2.20
2008,03,28,07,34,2.20
2008,03,28,07,35,2.20
2008,03,28,07,36,2.20
2008,03,28,07,37,2.30
2008,03,28,07,38,2.30
2008,03,28,07,39,2.30
2008,03,28,07,40,2.30
2008,03,28,07,41,2.30
2008,03,28,07,42,2.30
2008,03,28,07,43,2.30
2008,03,28,07,44,2.30
2008,03,28,07,45,2.30
2008,03,28,07,46,2.30
2008,03,28,07,47,2.30
2008,03,28,07,48,2.30
2008,03,28,07,49,2.30
2008,03,28,07,50,2.30
2008,03,28,07,51,2.30
2008,03,28,07,52,2.30
2008,03,28,07,53,2.30
2008,03,28,07,54,2.30
2008,03,28,07,55,2.30
2008,03,28,07,56,2.30
2008,03,28,07,57,2.20
2008,03,28,07,58,2.20
2008,03,28,07,59,2.20
2008,03,28,08,00,2.20
2008,03,28,08,01,2.20
2008,03,28,08,02,2.20
2008,03,28,08,03,2.20
2008,03,28,08,04,2.20
2008,03,28,08,05,2.20
2008,03,28,08,06,2.20
2008,03,28,08,07,2.20
2008,03,28,08,08,2.20
2008,03,28,08,09,2.20
2008,03,28,08,10,2.20
2008,03,28,08,11,2.20
2008,03,28,08,12,2.20
2008,03,28,08,13,2.20
2008,03,28,08,14,2.10
2008,03,28,08,15,2.10
2008,03,28,08,16,2.10
2008,03,28,08,17,2.10
2008,03,28,08,18,2.10
2008,03,28,08,19,2.10
2008,03,28,08,20,2.10
2008,03,28,08,21,2.10
2008,03,28,08,22,2.10
2008,03,28,08,23,2.10
2008,03,28,08,24,2.10
2008,03,28,08,25,2.10
2008,03,28,08,26,2.10
2008,03,28,08,27,2.10
2008,03,28,08,28,2.10
2008,03,28,08,29,2.10
2008,03,28,08,30,2.10
2008,03,28,08,31,2.10
2008,03,28,08,32,2.10
2008,03,28,08,33,2.10
2008,03,28,08,34,2.10
2008,03,28,08,35,2.10
2008,03,28,08,36,2.10
2008,03,28,08,37,2.10
2008,03,28,08,38,2.10
2008,03,28,08,39,2.10
2008,03,28,08,40,2.00
2008,03,28,08,41,2.10
2008,03,28,08,42,2.10
2008,03,28,08,43,2.10
2008,03,28,08,44,2.10
2008,03,28,08,45,2.10
2008,03,28,08,46,2.10
2008,03,28,08,47,2.10
2008,03,28,08,48,2.10
2008,03,28,08,49,2.10
2008,03,28,08,50,2.00
2008,03,28,08,51,2.00
2008,03,28,08,52,1.90
2008,03,28,08,53,1.80
2008,03,28,08,54,1.70
2008,03,28,08,55,1.60
2008,03,28,08,56,1.60
2008,03,28,08,57,1.50
2008,03,28,08,58,1.40
2008,03,28,08,59,1.30
2008,03,28,09,00,1.30
2008,03,28,09,01,1.30
2008,03,28,09,02,1.30
2008,03,28,09,03,1.30
2008,03,28,09,04,1.30
2008,03,28,09,05,1.20
2008,03,28,09,06,1.10
2008,03,28,09,07,1.00
2008,03,28,09,08,0.90
2008,03,28,09,09,0.90
2008,03,28,09,10,0.80
2008,03,28,09,11,0.80
2008,03,28,09,12,0.70
2008,03,28,09,13,0.70
2008,03,28,09,14,0.70
2008,03,28,09,15,0.60
2008,03,28,09,16,0.60
2008,03,28,09,17,0.50
2008,03,28,09,18,0.50
2008,03,28,09,19,0.40
2008,03,28,09,20,0.40
2008,03,28,09,21,0.40
2008,03,28,09,22,0.40
2008,03,28,09,23,0.30
2008,03,28,09,24,0.30
2008,03,28,09,25,0.30
2008,03,28,09,26,0.30
2008,03,28,09,27,0.30
2008,03,28,09,28,0.30
2008,03,28,09,29,0.30
2008,03,28,09,30,0.40
2008,03,28,09,31,0.40
2008,03,28,09,32,0.40
2008,03,28,09,33,0.40
2008,03,28,09,34,0.40
2008,03,28,09,35,0.40
2008,03,28,09,36,0.40
2008,03,28,09,37,0.40
2008,03,28,09,38,0.40
2008,03,28,09,39,0.40
2008,03,28,09,40,0.40
2008,03,28,09,41,0.40
2008,03,28,09,42,0.40
2008,03,28,09,43,0.40
2008,03,28,09,44,0.40
2008,03,28,09,45,0.40
2008,03,28,09,46,0.50
2008,03,28,09,47,0.50
2008,03,28,09,48,0.60
2008,03,28,09,49,0.60
2008,03,28,09,50,0.60
2008,03,28,09,51,0.70
2008,03,28,09,52,0.70
2008,03,28,09,53,0.70
2008,03,28,09,54,0.70
2008,03,28,09,55,0.80
2008,03,28,09,56,0.80
2008,03,28,09,57,0.80
2008,03,28,09,58,0.80
2008,03,28,09,59,0.80
2008,03,28,10,00,0.80
2008,03,28,10,01,0.80
2008,03,28,10,02,0.80
2008,03,28,10,03,0.80
2008,03,28,10,04,0.80
2008,03,28,10,05,0.90
2008,03,28,10,06,0.90
2008,03,28,10,07,1.00
2008,03,28,10,08,1.00
2008,03,28,10,09,1.00
2008,03,28,10,10,1.10
2008,03,28,10,11,1.10
2008,03,28,10,12,1.10
2008,03,28,10,13,1.20
2008,03,28,10,14,1.20
2008,03,28,10,15,1.20
2008,03,28,10,16,1.20
2008,03,28,10,17,1.30
2008,03,28,10,18,1.30
2008,03,28,10,19,1.30
2008,03,28,10,20,1.30
2008,03,28,10,21,1.30
2008,03,28,10,22,1.30
2008,03,28,10,23,1.30
2008,03,28,10,24,1.30
2008,03,28,10,25,1.30
2008,03,28,10,26,1.30
2008,03,28,10,27,1.40
2008,03,28,10,28,1.30
2008,03,28,10,29,1.40
2008,03,28,10,30,1.40
2008,03,28,10,31,1.30
2008,03,28,10,32,1.30
2008,03,28,10,33,1.40
2008,03,28,10,34,1.40
2008,03,28,10,35,1.50
2008,03,28,10,36,1.60
2008,03,28,10,37,1.70
2008,03,28,10,38,1.70
2008,03,28,10,39,1.70
2008,03,28,10,40,1.70
2008,03,28,10,41,1.70
2008,03,28,10,42,1.70
2008,03,28,10,43,1.70
2008,03,28,10,44,1.70
2008,03,28,10,45,1.70
2008,03,28,10,46,1.70
2008,03,28,10,47,1.70
2008,03,28,10,48,1.70
2008,03,28,10,49,1.80
2008,03,28,10,50,1.80
2008,03,28,10,51,1.90
2008,03,28,10,52,2.00
2008,03,28,10,53,2.00
2008,03,28,10,54,2.00
2008,03,28,10,55,2.00
2008,03,28,10,56,1.90
2008,03,28,10,57,1.90
2008,03,28,10,58,2.00
2008,03,28,10,59,2.00
2008,03,28,11,00,2.00
2008,03,28,11,01,2.00
2008,03,28,11,02,2.00
2008,03,28,11,03,2.00
2008,03,28,11,04,2.10
2008,03,28,11,05,2.10
2008,03,28,11,06,2.10
2008,03,28,11,07,2.10
2008,03,28,11,08,2.00
2008,03,28,11,09,2.00
2008,03,28,11,10,1.90
2008,03,28,11,11,2.00
2008,03,28,11,12,2.00
2008,03,28,11,13,2.00
2008,03,28,11,14,2.00
2008,03,28,11,15,2.00
2008,03,28,11,16,2.10
2008,03,28,11,17,2.00
2008,03,28,11,18,2.00
2008,03,28,11,19,2.10
2008,03,28,11,20,2.10
2008,03,28,11,21,2.10
2008,03,28,11,22,2.10
2008,03,28,11,23,2.10
2008,03,28,11,24,2.10
2008,03,28,11,25,2.20
2008,03,28,11,26,2.20
2008,03,28,11,27,2.20
2008,03,28,11,28,2.20
2008,03,28,11,29,2.20
2008,03,28,11,30,2.10
2008,03,28,11,31,2.10
2008,03,28,11,32,2.10
2008,03,28,11,33,2.20
2008,03,28,11,34,2.20
2008,03,28,11,35,2.20
2008,03,28,11,36,2.20
2008,03,28,11,37,2.30
2008,03,28,11,38,2.30
2008,03,28,11,39,2.40
2008,03,28,11,40,2.40
2008,03,28,11,41,2.40
2008,03,28,11,42,2.30
2008,03,28,11,43,2.40
2008,03,28,11,44,2.40
2008,03,28,11,45,2.40
2008,03,28,11,46,2.50
2008,03,28,11,47,2.60
2008,03,28,11,48,2.60
2008,03,28,11,49,2.70
2008,03,28,11,50,2.70
2008,03,28,11,51,2.70
2008,03,28,11,52,2.60
2008,03,28,11,53,2.60
2008,03,28,11,54,2.60
2008,03,28,11,55,2.60
2008,03,28,11,56,2.60
2008,03,28,11,57,2.70
2008,03,28,11,58,2.70
2008,03,28,11,59,2.70
2008,03,28,12,00,2.60
2008,03,28,12,01,2.60
2008,03,28,12,02,2.60
2008,03,28,12,03,2.60
2008,03,28,12,04,2.60
2008,03,28,12,05,2.60
2008,03,28,12,06,2.70
2008,03,28,12,07,2.80
2008,03,28,12,08,2.80
2008,03,28,12,09,2.80
2008,03,28,12,10,2.80
2008,03,28,12,11,2.90
2008,03,28,12,12,2.90
2008,03,28,12,13,3.10
2008,03,28,12,14,3.10
2008,03,28,12,15,3.10
2008,03,28,12,16,3.10
2008,03,28,12,17,3.10
2008,03,28,12,18,3.10
2008,03,28,12,19,3.10
2008,03,28,12,20,3.10
2008,03,28,12,21,3.20
2008,03,28,12,22,3.20
2008,03,28,12,23,3.30
2008,03,28,12,24,3.30
2008,03,28,12,25,3.30
2008,03,28,12,26,3.20
2008,03,28,12,27,3.20
2008,03,28,12,28,3.30
2008,03,28,12,29,3.20
2008,03,28,12,30,3.20
2008,03,28,12,31,3.20
2008,03,28,12,32,3.20
2008,03,28,12,33,3.20
2008,03,28,12,34,3.20
2008,03,28,12,35,3.20
2008,03,28,12,36,3.20
2008,03,28,12,37,3.30
2008,03,28,12,38,3.30
2008,03,28,12,39,3.30
2008,03,28,12,40,3.40
2008,03,28,12,41,3.40
2008,03,28,12,42,3.40
2008,03,28,12,43,3.50
2008,03,28,12,44,3.50
2008,03,28,12,45,3.50
2008,03,28,12,46,3.50
2008,03,28,12,47,3.50
2008,03,28,12,48,3.50
2008,03,28,12,49,3.50
2008,03,28,12,50,3.50
2008,03,28,12,51,3.60
2008,03,28,12,52,3.60
2008,03,28,12,53,3.70
2008,03,28,12,54,3.70
2008,03,28,12,55,3.70
2008,03,28,12,56,3.70
2008,03,28,12,57,3.70
2008,03,28,12,58,3.60
2008,03,28,12,59,3.60
2008,03,28,13,00,3.60
2008,03,28,13,01,3.60
2008,03,28,13,02,3.60
2008,03,28,13,03,3.70
2008,03,28,13,04,3.70
2008,03,28,13,05,3.70
2008,03,28,13,06,3.70
2008,03,28,13,07,3.80
2008,03,28,13,08,3.80
2008,03,28,13,09,3.80
2008,03,28,13,10,3.90
2008,03,28,13,11,4.00
2008,03,28,13,12,4.00
2008,03,28,13,13,4.00
2008,03,28,13,14,4.00
2008,03,28,13,15,3.90
2008,03,28,13,16,3.90
2008,03,28,13,17,3.90
2008,03,28,13,18,3.90
2008,03,28,13,19,3.80
2008,03,28,13,20,3.90
2008,03,28,13,21,3.90
2008,03,28,13,22,3.90
2008,03,28,13,23,3.90
2008,03,28,13,24,3.90
2008,03,28,13,25,3.90
2008,03,28,13,26,3.90
2008,03,28,13,27,3.80
2008,03,28,13,28,3.80
2008,03,28,13,29,3.70
2008,03,28,13,30,3.70
2008,03,28,13,31,3.80
2008,03,28,13,32,3.80
2008,03,28,13,33,3.70
2008,03,28,13,34,3.70
2008,03,28,13,35,3.70
2008,03,28,13,36,3.70
2008,03,28,13,37,3.70
2008,03,28,13,38,3.70
2008,03,28,13,39,3.70
2008,03,28,13,40,3.70
2008,03,28,13,41,3.80
2008,03,28,13,42,3.80
2008,03,28,13,43,3.80
2008,03,28,13,44,3.70
2008,03,28,13,45,3.70
2008,03,28,13,46,3.80
2008,03,28,13,47,3.80
2008,03,28,13,48,3.90
2008,03,28,13,49,3.90
2008,03,28,13,50,3.90
2008,03,28,13,51,3.90
2008,03,28,13,52,3.90
2008,03,28,13,53,3.90
2008,03,28,13,54,3.90
2008,03,28,13,55,3.80
2008,03,28,13,56,3.80
2008,03,28,13,57,3.80
2008,03,28,13,58,3.80
2008,03,28,13,59,3.80
2008,03,28,14,00,3.90
2008,03,28,14,01,4.00
2008,03,28,14,02,4.00
2008,03,28,14,03,4.00
2008,03,28,14,04,4.10
2008,03,28,14,05,4.00
2008,03,28,14,06,4.00
2008,03,28,14,07,4.00
2008,03,28,14,08,3.90
2008,03,28,14,09,3.90
2008,03,28,14,10,3.90
2008,03,28,14,11,3.90
2008,03,28,14,12,3.90
2008,03,28,14,13,3.90
2008,03,28,14,14,3.90
2008,03,28,14,15,3.90
2008,03,28,14,16,4.00
2008,03,28,14,17,4.00
2008,03,28,14,18,4.00
2008,03,28,14,19,4.00
2008,03,28,14,20,4.00
2008,03,28,14,21,3.90
2008,03,28,14,22,3.90
2008,03,28,14,23,3.90
2008,03,28,14,24,4.00
2008,03,28,14,25,4.10
2008,03,28,14,26,4.10
2008,03,28,14,27,4.10
2008,03,28,14,28,4.10
2008,03,28,14,29,4.20
2008,03,28,14,30,4.20
2008,03,28,14,31,4.20
2008,03,28,14,32,4.30
2008,03,28,14,33,4.30
2008,03,28,14,34,4.30
2008,03,28,14,35,4.30
2008,03,28,14,36,4.30
2008,03,28,14,37,4.30
2008,03,28,14,38,4.30
2008,03,28,14,39,4.20
2008,03,28,14,40,4.20
2008,03,28,14,41,4.20
2008,03,28,14,42,4.10
2008,03,28,14,43,4.10
2008,03,28,14,44,4.10
2008,03,28,14,45,4.10
2008,03,28,14,46,4.00
2008,03,28,14,47,3.90
2008,03,28,14,48,3.90
2008,03,28,14,49,3.90
2008,03,28,14,50,4.00
2008,03,28,14,51,4.00
2008,03,28,14,52,4.00
2008,03,28,14,53,4.00
2008,03,28,14,54,3.90
2008,03,28,14,55,3.90
2008,03,28,14,56,3.90
2008,03,28,14,57,3.90
2008,03,28,14,58,3.90
2008,03,28,14,59,3.90
2008,03,28,15,00,3.90
2008,03,28,15,01,4.00
2008,03,28,15,02,4.00
2008,03,28,15,03,4.00
2008,03,28,15,04,4.00
2008,03,28,15,05,4.00
2008,03,28,15,06,4.00
2008,03,28,15,07,4.00
2008,03,28,15,08,3.90
2008,03,28,15,09,3.90
2008,03,28,15,10,3.80
2008,03,28,15,11,3.80
2008,03,28,15,12,3.70
2008,03,28,15,13,3.70
2008,03,28,15,14,3.60
2008,03,28,15,15,3.50
2008,03,28,15,16,3.40
2008,03,28,15,17,3.40
2008,03,28,15,18,3.40
2008,03,28,15,19,3.40
2008,03,28,15,20,3.40
2008,03,28,15,21,3.30
2008,03,28,15,22,3.30
2008,03,28,15,23,3.30
2008,03,28,15,24,3.20
2008,03,28,15,25,3.20
2008,03,28,15,26,3.20
2008,03,28,15,27,3.20
2008,03,28,15,28,3.10
2008,03,28,15,29,3.10
2008,03,28,15,30,3.10
2008,03,28,15,31,3.10
2008,03,28,15,32,3.10
2008,03,28,15,33,3.10
2008,03,28,15,34,3.00
2008,03,28,15,35,3.00
2008,03,28,15,36,3.00
2008,03,28,15,37,2.90
2008,03,28,15,38,2.90
2008,03,28,15,39,2.90
2008,03,28,15,40,2.90
2008,03,28,15,41,2.90
2008,03,28,15,42,2.80
2008,03,28,15,43,2.80
2008,03,28,15,44,2.80
2008,03,28,15,45,2.80
2008,03,28,15,46,2.80
2008,03,28,15,47,2.80
2008,03,28,15,48,2.90
2008,03,28,15,49,2.90
2008,03,28,15,50,2.90
2008,03,28,15,51,2.90
2008,03,28,15,52,3.00
2008,03,28,15,53,3.00
2008,03,28,15,54,3.00
2008,03,28,15,55,3.10
2008,03,28,15,56,3.10
2008,03,28,15,57,3.10
2008,03,28,15,58,3.10
2008,03,28,15,59,3.10
2008,03,28,16,00,3.10
2008,03,28,16,01,3.10
2008,03,28,16,02,3.10
2008,03,28,16,03,3.10
2008,03,28,16,04,3.10
2008,03,28,16,05,3.10
2008,03,28,16,06,3.10
2008,03,28,16,07,3.10
2008,03,28,16,08,3.00
2008,03,28,16,09,3.00
2008,03,28,16,10,2.90
2008,03,28,16,11,2.90
2008,03,28,16,12,2.80
2008,03,28,16,13,2.80
2008,03,28,16,14,2.80
2008,03,28,16,15,2.70
2008,03,28,16,16,2.70
2008,03,28,16,17,2.70
2008,03,28,16,18,2.70
2008,03,28,16,19,2.70
2008,03,28,16,20,2.70
2008,03,28,16,21,2.60
2008,03,28,16,22,2.60
2008,03,28,16,23,2.60
2008,03,28,16,24,2.60
2008,03,28,16,25,2.60
2008,03,28,16,26,2.60
2008,03,28,16,27,2.60
2008,03,28,16,28,2.60
2008,03,28,16,29,2.60
2008,03,28,16,30,2.60
2008,03,28,16,31,2.60
2008,03,28,16,32,2.60
2008,03,28,16,33,2.50
2008,03,28,16,34,2.50
2008,03,28,16,35,2.50
2008,03,28,16,36,2.50
2008,03,28,16,37,2.40
2008,03,28,16,38,2.40
2008,03,28,16,39,2.40
2008,03,28,16,40,2.40
2008,03,28,16,41,2.50
2008,03,28,16,42,2.50
2008,03,28,16,43,2.60
2008,03,28,16,44,2.60
2008,03,28,16,45,2.60
2008,03,28,16,46,2.70
2008,03,28,16,47,2.70
2008,03,28,16,48,2.70
2008,03,28,16,49,2.70
2008,03,28,16,50,2.70
2008,03,28,16,51,2.70
2008,03,28,16,52,2.70
2008,03,28,16,53,2.70
2008,03,28,16,54,2.70
2008,03,28,16,55,2.70
2008,03,28,16,56,2.70
2008,03,28,16,57,2.70
2008,03,28,16,58,2.70
2008,03,28,16,59,2.70
2008,03,28,17,00,2.70
2008,03,28,17,01,2.70
2008,03,28,17,02,2.60
2008,03,28,17,03,2.60
2008,03,28,17,04,2.60
2008,03,28,17,05,2.60
2008,03,28,17,06,2.60
2008,03,28,17,07,2.50
2008,03,28,17,08,2.50
2008,03,28,17,09,2.60
2008,03,28,17,10,2.60
2008,03,28,17,11,2.70
2008,03,28,17,12,2.70
2008,03,28,17,13,2.70
2008,03,28,17,14,2.70
2008,03,28,17,15,2.60
2008,03,28,17,16,2.60
2008,03,28,17,17,2.60
2008,03,28,17,18,2.50
2008,03,28,17,19,2.50
2008,03,28,17,20,2.50
2008,03,28,17,21,2.50
2008,03,28,17,22,2.60
2008,03,28,17,23,2.60
2008,03,28,17,24,2.50
2008,03,28,17,25,2.50
2008,03,28,17,26,2.50
2008,03,28,17,27,2.50
2008,03,28,17,28,2.60
2008,03,28,17,29,2.60
2008,03,28,17,30,2.60
2008,03,28,17,31,2.50
2008,03,28,17,32,2.40
2008,03,28,17,33,2.40
2008,03,28,17,34,2.40
2008,03,28,17,35,2.40
2008,03,28,17,36,2.40
2008,03,28,17,37,2.40
2008,03,28,17,38,2.40
2008,03,28,17,39,2.40
2008,03,28,17,40,2.40
2008,03,28,17,41,2.40
2008,03,28,17,42,2.40
2008,03,28,17,43,2.40
2008,03,28,17,44,2.40
2008,03,28,17,45,2.40
2008,03,28,17,46,2.40
2008,03,28,17,47,2.40
2008,03,28,17,48,2.30
2008,03,28,17,49,2.30
2008,03,28,17,50,2.30
2008,03,28,17,51,2.20
2008,03,28,17,52,2.20
2008,03,28,17,53,2.20
2008,03,28,17,54,2.20
2008,03,28,17,55,2.30
2008,03,28,17,56,2.30
2008,03,28,17,57,2.30
2008,03,28,17,58,2.30
2008,03,28,17,59,2.30
2008,03,28,18,00,2.30
2008,03,28,18,01,2.30
2008,03,28,18,02,2.30
2008,03,28,18,03,2.30
2008,03,28,18,04,2.20
2008,03,28,18,05,2.20
2008,03,28,18,06,2.20